TimeEDT,TemperatureF,Dew PointF,Humidity,Sea Level PressureIn,VisibilityMPH,Wind Direction,Wind SpeedMPH,Gust SpeedMPH,PrecipitationIn,Events,Conditions,WindDirDegrees,DateUTC
12:51 AM,66.0,46.9,50,30.23,10.0,SE,4.6,-,N/A,,Partly Cloudy,140,2013-06-21 04:51:00
1:51 AM,66.0,48.0,52,30.24,10.0,Calm,Calm,-,N/A,,Mostly Cloudy,0,2013-06-21 05:51:00
2:51 AM,64.0,48.9,58,30.24,10.0,Calm,Calm,-,N/A,,Scattered Clouds,0,2013-06-21 06:51:00
3:51 AM,63.0,48.9,60,30.23,10.0,SSE,3.5,-,N/A,,Partly Cloudy,150,2013-06-21 07:51:00
4:51 AM,61.0,50.0,67,30.23,10.0,SSE,5.8,-,N/A,,Mostly Cloudy,160,2013-06-21 08:51:00
5:51 AM,61.0,50.0,67,30.23,10.0,SSE,8.1,-,N/A,,Scattered Clouds,160,2013-06-21 09:51:00
6:51 AM,64.0,52.0,65,30.24,10.0,SSE,8.1,-,N/A,,Partly Cloudy,160,2013-06-21 10:51:00
7:51 AM,69.1,54.0,58,30.25,10.0,SSE,8.1,-,N/A,,Mostly Cloudy,160,2013-06-21 11:51:00
8:51 AM,72.0,55.0,55,30.24,10.0,South,10.4,-,N/A,,Scattered Clouds,170,2013-06-21 12:51:00
9:51 AM,75.0,57.0,53,30.26,10.0,SSE,5.8,-,N/A,,Mostly Cloudy,160,2013-06-21 13:51:00
10:51 AM,80.1,57.0,45,30.25,10.0,SSW,8.1,-,N/A,,Scattered Clouds,200,2013-06-21 14:51:00
11:51 AM,82.0,57.9,44,30.23,10.0,SSW,9.2,-,N/A,,Scattered Clouds,200,2013-06-21 15:51:00
12:51 PM,84.0,60.1,44,30.25,10.0,WSW,8.1,-,N/A,,Mostly Cloudy,240,2013-06-21 16:51:00
1:51 PM,82.9,59.0,44,30.23,10.0,West,6.9,-,N/A,,Scattered Clouds,260,2013-06-21 17:51:00
2:51 PM,82.0,59.0,45,30.22,10.0,South,8.1,-,N/A,,Scattered Clouds,170,2013-06-21 18:51:00
3:51 PM,84.9,57.9,40,30.20,10.0,Calm,Calm,-,N/A,,Scattered Clouds,0,2013-06-21 19:51:00
4:51 PM,84.9,60.1,43,30.19,10.0,SSE,8.1,-,N/A,,Mostly Cloudy,160,2013-06-21 20:51:00
5:51 PM,84.0,57.9,41,30.18,10.0,WSW,6.9,-,N/A,,Mostly Cloudy,250,2013-06-21 21:51:00
6:51 PM,82.0,59.0,45,30.17,10.0,SW,6.9,-,N/A,,Overcast,230,2013-06-21 22:51:00
7:51 PM,81.0,57.0,44,30.15,10.0,SSW,5.8,-,N/A,,Overcast,200,2013-06-21 23:51:00
8:51 PM,79.0,57.0,47,30.15,10.0,South,6.9,-,N/A,,Mostly Cloudy,180,2013-06-22 00:51:00
9:51 PM,75.0,57.9,55,30.14,10.0,SSE,6.9,-,N/A,,Overcast,160,2013-06-22 01:51:00
10:51 PM,73.0,57.9,59,30.15,10.0,SSE,8.1,-,N/A,,Scattered Clouds,160,2013-06-22 02:51:00
11:51 PM,72.0,57.9,61,30.14,10.0,SSE,6.9,-,N/A,,Scattered Clouds,160,2013-06-22 03:51:00